Norah Head Observation History
Time Wind Speed Temp Pressure Rel. Hum Rain
30/10:00am N 6-8 kts 19.9°c 1015.3 hPa 100% 0.0mm
30/09:30am N 5-6 kts 20.0°c 1014.9 hPa 100% 0.0mm
30/09:00am N 3 kts 19.8°c 1014.9 hPa 100% 1.8mm
30/08:30am CALM 0-1 kts 19.5°c 1014.9 hPa 100% 1.6mm
30/08:00am W 1-3 kts 19.3°c 1014.8 hPa 100% 0.8mm
30/07:30am SW 5-7 kts 19.3°c 1014.4 hPa 100% 0.2mm
30/07:00am SW 2-3 kts 19.2°c 1014.1 hPa 100% 0.2mm
30/06:30am SW 4-5 kts 18.9°c 1013.7 hPa 100% 0.2mm
30/06:00am WSW 5-7 kts 18.6°c 1013.7 hPa 99% 0.2mm
30/05:30am WNW 2-5 kts 19.1°c 1013.6 hPa 97% 0.2mm
30/05:00am NNW 3-4 kts 19.5°c 1013.3 hPa 97% 0.2mm
30/04:30am N 6-7 kts 19.6°c 1013.1 hPa 96% 0.2mm
30/04:00am N 4-6 kts 19.6°c 1013.3 hPa 95% 0.2mm
30/03:30am N 7-8 kts 19.8°c 1013.6 hPa 93% 0.2mm
30/03:00am N 9-10 kts 20.0°c 1013.9 hPa 93% 0.2mm
30/02:30am NNE 12-14 kts 20.2°c 1014.3 hPa 94% 0.2mm
30/02:00am N 11-13 kts 20.2°c 1014.7 hPa 96% 0.2mm
30/01:30am N 10-12 kts 20.3°c 1015.0 hPa 96% 0.2mm
30/01:00am NNE 11-13 kts 20.6°c 1015.3 hPa 97% 0.2mm
30/12:30am NNE 11-13 kts 20.7°c 1015.6 hPa 97% 0.2mm
30/12:00am NNE 10-12 kts 20.8°c 1016.1 hPa 96% 0.2mm
Time Wind Speed Temp Pressure Rel. Hum Rain
29/11:30pm NNE 11-12 kts 20.7°c 1016.3 hPa 95% 0.2mm
29/11:00pm NNE 12-13 kts 20.9°c 1016.4 hPa 92% 0.2mm
29/10:30pm NNE 13-15 kts 20.8°c 1016.7 hPa 91% 0.2mm
29/10:00pm N 12-13 kts 21.1°c 1016.9 hPa 92% 0.2mm
29/09:30pm NNE 19-23 kts 21.2°c 1016.7 hPa 92% 0.2mm
29/09:00pm NNE 18-21 kts 21.4°c 1016.6 hPa 93% 0.2mm
29/08:30pm NNE 18-21 kts 21.4°c 1016.6 hPa 93% 0.2mm
29/08:00pm NE 18-21 kts 21.4°c 1016.4 hPa 93% 0.2mm
29/07:30pm NE 19-22 kts 21.3°c 1016.3 hPa 93% 0.2mm
29/07:00pm NE 20-24 kts 21.5°c 1016.3 hPa 93% 0.2mm
29/06:30pm NE 17-21 kts 21.4°c 1016.1 hPa 91% 0.2mm
29/06:00pm NE 17-21 kts 21.6°c 1016.2 hPa 90% 0.2mm
29/05:30pm NE 16-20 kts 21.9°c 1016.4 hPa 88% 0.2mm
29/05:00pm NE 15-18 kts 22.7°c 1016.5 hPa 86% 0.2mm
29/04:30pm NE 15-19 kts 23.4°c 1016.6 hPa 82% 0.2mm
29/04:00pm NE 15-18 kts 24.5°c 1016.9 hPa 78% 0.2mm
29/03:30pm NE 14-16 kts 24.6°c 1017.2 hPa 79% 0.2mm
29/03:00pm NE 12-14 kts 24.0°c 1017.6 hPa 82% 0.2mm
29/02:30pm NE 13-15 kts 24.8°c 1017.9 hPa 80% 0.2mm
29/02:00pm NE 12-14 kts 24.6°c 1018.2 hPa 76% 0.2mm
29/01:30pm NE 10-12 kts 24.8°c 1018.9 hPa 80% 0.2mm
29/01:00pm NE 11-12 kts 25.3°c 1019.5 hPa 87% 0.0mm
29/12:30pm NNE 12-13 kts 23.3°c 1019.8 hPa 84% 0.0mm
29/12:00pm NE 13-15 kts 23.4°c 1020.0 hPa 81% 0.0mm
29/11:30am NNE 12-14 kts 23.9°c 1020.3 hPa 82% 0.0mm
29/11:00am NNE 13-14 kts 23.5°c 1020.6 hPa 83% 0.0mm
29/10:30am NNE 13-14 kts 23.1°c 1020.6 hPa 84% 0.0mm
29/10:00am NNE 14-16 kts 22.4°c 1020.5 hPa 85% 0.0mm
29/09:30am NNE 16-19 kts 21.9°c 1020.5 hPa 86% 0.0mm
29/09:00am NNE 18-20 kts 21.4°c 1020.3 hPa 90% 30.8mm
29/08:30am NNE 19-21 kts 20.8°c 1020.2 hPa 95% 30.8mm
29/08:00am NNE 21-24 kts 20.2°c 1019.8 hPa 96% 30.8mm
29/07:30am NNE 18-21 kts 19.8°c 1019.7 hPa 98% 30.8mm
29/07:00am NNE 13-16 kts 19.8°c 1019.6 hPa 99% 30.8mm
29/06:30am N 9-10 kts 19.5°c 1019.6 hPa 98% 30.8mm
29/06:00am N 10-12 kts 19.3°c 1019.5 hPa 98% 30.8mm
29/05:30am N 14-16 kts 19.2°c 1019.5 hPa 99% 30.8mm
29/05:00am N 24-30 kts 19.5°c 1019.1 hPa 99% 30.6mm
29/04:47am NNE 15-26 kts 20.0°c 1019.0 hPa 100% 30.4mm
29/04:30am NNE 9-16 kts 19.8°c 1019.3 hPa 100% 30.4mm
29/04:00am N 4-5 kts 19.1°c 1019.7 hPa 100% 30.4mm
29/03:30am N 5-7 kts 19.1°c 1019.8 hPa 100% 30.4mm
29/03:00am NW 3-4 kts 18.8°c 1020.2 hPa 99% 30.4mm
29/02:30am N 5-6 kts 18.9°c 1020.5 hPa 98% 30.4mm
29/02:00am NW 6-8 kts 18.8°c 1020.9 hPa 95% 30.2mm
29/01:30am NW 4-9 kts 19.8°c 1021.1 hPa 90% 28.6mm
29/01:00am N 6-7 kts 20.1°c 1021.3 hPa 90% 28.6mm
29/12:30am NNE 10-12 kts 20.4°c 1021.5 hPa 92% 28.6mm
29/12:00am NE 11-13 kts 19.8°c 1021.7 hPa 93% 28.6mm
Time Wind Speed Temp Pressure Rel. Hum Rain
28/11:30pm NNE 13-15 kts 20.1°c 1021.8 hPa 94% 28.6mm
28/11:00pm NNE 16-19 kts 20.2°c 1021.9 hPa 94% 28.6mm
28/10:30pm NE 14-17 kts 20.1°c 1022.0 hPa 92% 28.6mm
28/10:00pm ENE 13-16 kts 19.9°c 1022.2 hPa 95% 28.6mm
28/09:30pm ENE 14-17 kts 19.8°c 1022.2 hPa 100% 28.6mm
28/09:00pm ENE 13-15 kts 19.2°c 1022.4 hPa 100% 28.4mm
28/08:30pm NE 11-13 kts 19.4°c 1022.5 hPa 100% 28.4mm
28/08:00pm NNE 17-21 kts 19.6°c 1022.0 hPa 100% 28.4mm
28/07:30pm NE 14-18 kts 19.3°c 1021.9 hPa 100% 28.2mm
28/07:00pm NE 16-18 kts 19.5°c 1021.7 hPa 100% 28.2mm
28/06:43pm ENE 15-25 kts 19.6°c 1021.6 hPa 100% 27.4mm
28/06:30pm ENE 13-16 kts 19.6°c 1021.8 hPa 100% 26.4mm
28/06:00pm ESE 9-16 kts 19.1°c 1021.8 hPa 100% 26.4mm
28/05:30pm SE 2-6 kts 18.5°c 1021.9 hPa 100% 25.2mm
28/05:00pm E 5-7 kts 18.5°c 1022.2 hPa 100% 17.4mm
28/04:30pm SSE 10-13 kts 18.7°c 1022.2 hPa 99% 6.2mm
28/04:00pm S 9-12 kts 18.6°c 1022.4 hPa 96% 0.6mm
28/03:30pm S 11-13 kts 18.8°c 1022.7 hPa 92% 0.4mm
28/03:00pm SSE 9-10 kts 19.2°c 1023.0 hPa 93% 0.4mm
28/02:30pm SE 10-12 kts 19.3°c 1023.3 hPa 92% 0.4mm
28/02:00pm ESE 16-19 kts 20.1°c 1023.4 hPa 78% 0.0mm
28/01:30pm SE 4-12 kts 21.9°c 1023.8 hPa 62% 0.0mm
28/01:00pm SE 9-14 kts 22.5°c 1024.1 hPa 61% 0.0mm
28/12:30pm SE 7-8 kts 23.0°c 1024.5 hPa 62% 0.0mm
28/12:00pm SE 6-8 kts 23.1°c 1024.7 hPa 64% 0.0mm
28/11:30am SSW 4-6 kts 22.7°c 1025.0 hPa 76% 0.0mm
28/11:00am S 5-7 kts 22.4°c 1025.0 hPa 77% 0.0mm
28/10:30am SSW 4-6 kts 21.7°c 1025.2 hPa 81% 0.0mm
28/10:00am SSW 4-5 kts 20.1°c 1025.2 hPa 81% 0.0mm
28/09:30am SW 4-6 kts 19.4°c 1025.1 hPa 83% 0.0mm
28/09:00am SW 4-6 kts 18.9°c 1025.1 hPa 81% 0.0mm
28/08:30am SW 4-5 kts 18.2°c 1024.7 hPa 86% 0.0mm
28/08:00am WSW 6-7 kts 16.9°c 1024.5 hPa 90% 0.0mm
28/07:30am WSW 6-7 kts 16.4°c 1024.4 hPa 91% 0.0mm
28/07:00am WSW 5-7 kts 16.6°c 1024.3 hPa 90% 0.0mm
28/06:30am W 7-9 kts 16.3°c 1024.0 hPa 92% 0.0mm
28/06:00am W 7-9 kts 16.3°c 1023.8 hPa 93% 0.0mm
28/05:30am W 7-9 kts 16.3°c 1023.6 hPa 92% 0.0mm
28/05:00am W 5-7 kts 16.5°c 1023.4 hPa 91% 0.0mm
28/04:30am W 3-5 kts 16.8°c 1023.4 hPa 91% 0.0mm
28/04:00am WSW 5-6 kts 16.9°c 1023.5 hPa 91% 0.0mm
28/03:30am WSW 5-7 kts 17.0°c 1023.7 hPa 89% 0.0mm
28/03:00am W 4-6 kts 17.1°c 1024.0 hPa 90% 0.0mm
28/02:30am W 5-6 kts 17.3°c 1024.3 hPa 92% 0.0mm
28/02:00am WSW 5-6 kts 17.1°c 1024.5 hPa 92% 0.0mm
28/01:30am WSW 4-6 kts 17.3°c 1024.7 hPa 90% 0.0mm
28/01:00am SW 3-5 kts 17.8°c 1024.9 hPa 87% 0.0mm
28/12:30am WSW 3-5 kts 18.2°c 1025.2 hPa 85% 0.0mm
28/12:00am SSW 2-4 kts 18.8°c 1025.4 hPa 82% 0.0mm